Time,TemperatureF,DewpointF,PressureIn,WindDirection,WindDirectionDegrees,WindSpeedMPH,WindSpeedGustMPH,Humidity,HourlyPrecipIn,Conditions,Clouds,dailyrainin,SolarRadiationWatts/m^2,SoftwareType,DateUTC
2013-05-13 00:01:00,54.0,28.0,-100.00,NNW,347,3.0,7.0,37,0.00,,,0.00,0.000000,,2013-05-13 06:01:00,
2013-05-13 00:11:00,54.0,28.0,-100.00,NNW,347,3.0,7.0,37,0.00,,,0.00,0.000000,,2013-05-13 06:11:00,
2013-05-13 00:42:00,53.0,27.0,-100.00,East,83,3.0,4.0,37,0.00,,,0.00,0.000000,,2013-05-13 06:42:00,
2013-05-13 00:52:00,53.0,27.0,-100.00,East,83,3.0,4.0,37,0.00,,,0.00,0.000000,,2013-05-13 06:52:00,
2013-05-13 01:01:00,53.0,27.0,-100.00,East,83,3.0,4.0,37,0.00,,,0.00,0.000000,,2013-05-13 07:01:00,
2013-05-13 01:11:00,53.0,27.0,-100.00,East,83,3.0,4.0,37,0.00,,,0.00,0.000000,,2013-05-13 07:11:00,
2013-05-13 01:42:00,53.0,27.0,-100.00,NNW,338,5.0,6.0,37,0.00,,,-99.99,0.000000,,2013-05-13 07:42:00,
2013-05-13 01:52:00,53.0,27.0,-100.00,NNW,338,5.0,6.0,37,0.00,,,-99.99,0.000000,,2013-05-13 07:52:00,
2013-05-13 02:02:00,53.0,27.0,-100.00,NNW,338,5.0,6.0,37,0.00,,,-99.99,0.000000,,2013-05-13 08:02:00,
2013-05-13 02:11:00,53.0,27.0,-100.00,NNW,338,5.0,6.0,37,0.00,,,-99.99,0.000000,,2013-05-13 08:11:00,
2013-05-13 02:42:00,53.0,27.0,-100.00,NNW,333,7.0,10.0,37,0.00,,,0.00,0.000000,,2013-05-13 08:42:00,
2013-05-13 02:52:00,53.0,27.0,-100.00,NNW,333,7.0,10.0,37,0.00,,,0.00,0.000000,,2013-05-13 08:52:00,
2013-05-13 03:01:00,53.0,27.0,-100.00,NNW,333,7.0,10.0,37,0.00,,,0.00,0.000000,,2013-05-13 09:01:00,
2013-05-13 03:11:00,53.0,27.0,-100.00,NNW,333,7.0,10.0,37,0.00,,,0.00,0.000000,,2013-05-13 09:11:00,
2013-05-13 03:12:00,52.0,28.0,-100.00,NNW,329,6.0,10.0,40,0.00,,,-99.99,0.000000,,2013-05-13 09:12:00,
2013-05-13 03:33:00,52.0,28.0,-100.00,NNW,329,6.0,10.0,40,0.00,,,-99.99,0.000000,,2013-05-13 09:33:00,
2013-05-13 03:42:00,52.0,28.0,-100.00,NNW,329,6.0,10.0,40,0.00,,,-99.99,0.000000,,2013-05-13 09:42:00,
2013-05-13 03:52:00,52.0,28.0,-100.00,NNW,329,6.0,10.0,40,0.00,,,-99.99,0.000000,,2013-05-13 09:52:00,
2013-05-13 04:02:00,52.0,28.0,-100.00,NNW,329,6.0,10.0,40,0.00,,,-99.99,0.000000,,2013-05-13 10:02:00,
2013-05-13 04:12:00,51.0,27.0,-100.00,NNW,347,8.0,10.0,39,0.00,,,0.00,0.000000,,2013-05-13 10:12:00,
2013-05-13 04:33:00,51.0,27.0,-100.00,NNW,347,8.0,10.0,39,0.00,,,0.00,0.000000,,2013-05-13 10:33:00,
2013-05-13 04:43:00,51.0,27.0,-100.00,NNW,347,8.0,10.0,39,0.00,,,0.00,0.000000,,2013-05-13 10:43:00,
2013-05-13 04:52:00,51.0,27.0,-100.00,NNW,347,8.0,10.0,39,0.00,,,0.00,0.000000,,2013-05-13 10:52:00,
2013-05-13 05:02:00,51.0,27.0,-100.00,NNW,347,8.0,10.0,39,0.00,,,0.00,0.000000,,2013-05-13 11:02:00,
2013-05-13 05:32:00,52.0,27.0,-100.00,North,349,6.0,10.0,38,0.00,,,0.00,0.000000,,2013-05-13 11:32:00,
2013-05-13 05:42:00,52.0,27.0,-100.00,North,349,6.0,10.0,38,0.00,,,0.00,0.000000,,2013-05-13 11:42:00,
2013-05-13 05:52:00,52.0,27.0,-100.00,North,349,6.0,10.0,38,0.00,,,0.00,0.000000,,2013-05-13 11:52:00,
2013-05-13 06:01:00,52.0,27.0,-100.00,North,349,6.0,10.0,38,0.00,,,0.00,0.000000,,2013-05-13 12:01:00,
2013-05-13 06:11:00,52.0,27.0,-100.00,North,349,6.0,10.0,38,0.00,,,0.00,0.000000,,2013-05-13 12:11:00,
2013-05-13 06:42:00,50.0,25.0,-100.00,North,6,7.0,10.0,37,0.00,,,-99.99,1.000000,,2013-05-13 12:42:00,
2013-05-13 06:52:00,50.0,25.0,-100.00,North,6,7.0,10.0,37,0.00,,,-99.99,1.000000,,2013-05-13 12:52:00,
2013-05-13 07:01:00,50.0,25.0,-100.00,North,6,7.0,10.0,37,0.00,,,-99.99,1.000000,,2013-05-13 13:01:00,
2013-05-13 07:11:00,50.0,25.0,-100.00,North,6,7.0,10.0,37,0.00,,,-99.99,1.000000,,2013-05-13 13:11:00,
2013-05-13 07:32:00,53.0,26.0,-100.00,NNE,12,5.0,9.0,35,0.00,,,0.00,72.000000,,2013-05-13 13:32:00,
2013-05-13 07:42:00,53.0,26.0,-100.00,NNE,12,5.0,9.0,35,0.00,,,0.00,72.000000,,2013-05-13 13:42:00,
2013-05-13 07:52:00,53.0,26.0,-100.00,NNE,12,5.0,9.0,35,0.00,,,0.00,72.000000,,2013-05-13 13:52:00,
2013-05-13 08:01:00,53.0,26.0,-100.00,NNE,12,5.0,9.0,35,0.00,,,0.00,72.000000,,2013-05-13 14:01:00,
2013-05-13 08:11:00,53.0,26.0,-100.00,NNE,12,5.0,9.0,35,0.00,,,0.00,72.000000,,2013-05-13 14:11:00,
2013-05-13 08:42:00,56.0,28.0,-100.00,SSE,156,6.0,10.0,34,0.00,,,0.00,255.000000,,2013-05-13 14:42:00,
2013-05-13 08:52:00,56.0,28.0,-100.00,SSE,156,6.0,10.0,34,0.00,,,0.00,255.000000,,2013-05-13 14:52:00,
2013-05-13 09:01:00,56.0,28.0,-100.00,SSE,156,6.0,10.0,34,0.00,,,0.00,255.000000,,2013-05-13 15:01:00,
2013-05-13 09:11:00,56.0,28.0,-100.00,SSE,156,6.0,10.0,34,0.00,,,0.00,255.000000,,2013-05-13 15:11:00,
2013-05-13 09:42:00,60.0,30.0,-100.00,SE,141,6.0,10.0,32,0.00,,,0.00,433.000000,,2013-05-13 15:42:00,
2013-05-13 09:53:00,60.0,30.0,-100.00,SE,141,6.0,10.0,32,0.00,,,0.00,433.000000,,2013-05-13 15:53:00,
2013-05-13 10:03:00,60.0,30.0,-100.00,SE,141,6.0,10.0,32,0.00,,,0.00,433.000000,,2013-05-13 16:03:00,
2013-05-13 10:11:00,60.0,30.0,-100.00,SE,141,6.0,10.0,32,0.00,,,0.00,433.000000,,2013-05-13 16:11:00,
2013-05-13 10:12:00,65.0,31.0,-100.00,SSE,158,5.0,11.0,28,0.00,,,-99.99,610.000000,,2013-05-13 16:12:00,
2013-05-13 10:33:00,65.0,31.0,-100.00,SSE,158,5.0,11.0,28,0.00,,,-99.99,610.000000,,2013-05-13 16:33:00,
2013-05-13 10:43:00,65.0,31.0,-100.00,SSE,158,5.0,11.0,28,0.00,,,-99.99,610.000000,,2013-05-13 16:43:00,
2013-05-13 10:52:00,65.0,31.0,-100.00,SSE,158,5.0,11.0,28,0.00,,,-99.99,610.000000,,2013-05-13 16:52:00,
2013-05-13 11:02:00,65.0,31.0,-100.00,SSE,158,5.0,11.0,28,0.00,,,-99.99,610.000000,,2013-05-13 17:02:00,
2013-05-13 11:12:00,68.0,29.0,-100.00,South,170,6.0,11.0,23,0.00,,,0.00,763.000000,,2013-05-13 17:12:00,
2013-05-13 11:32:00,68.0,29.0,-100.00,South,170,6.0,11.0,23,0.00,,,0.00,763.000000,,2013-05-13 17:32:00,
2013-05-13 11:42:00,68.0,29.0,-100.00,South,170,6.0,11.0,23,0.00,,,0.00,763.000000,,2013-05-13 17:42:00,
2013-05-13 11:54:00,68.0,29.0,-100.00,South,170,6.0,11.0,23,0.00,,,0.00,763.000000,,2013-05-13 17:54:00,
2013-05-13 12:03:00,68.0,29.0,-100.00,South,170,6.0,11.0,23,0.00,,,0.00,763.000000,,2013-05-13 18:03:00,
2013-05-13 13:32:00,74.0,23.0,-100.00,South,180,8.0,14.0,15,-99.99,,,0.00,933.000000,,2013-05-13 19:32:00,
2013-05-13 13:44:00,74.0,23.0,-100.00,South,180,8.0,14.0,15,-99.99,,,0.00,933.000000,,2013-05-13 19:44:00,
2013-05-13 13:53:00,74.0,23.0,-100.00,South,180,8.0,14.0,15,-99.99,,,0.00,933.000000,,2013-05-13 19:53:00,
2013-05-13 14:01:00,74.0,23.0,-100.00,South,180,8.0,14.0,15,-99.99,,,0.00,933.000000,,2013-05-13 20:01:00,
2013-05-13 14:11:00,74.0,23.0,-100.00,South,180,8.0,14.0,15,-99.99,,,0.00,933.000000,,2013-05-13 20:11:00,
2013-05-13 14:12:00,72.0,20.0,-100.00,South,174,7.0,15.0,14,0.00,,,0.00,897.000000,,2013-05-13 20:12:00,
2013-05-13 14:34:00,72.0,20.0,-100.00,South,174,7.0,15.0,14,0.00,,,0.00,897.000000,,2013-05-13 20:34:00,
2013-05-13 14:44:00,72.0,20.0,-100.00,South,174,7.0,15.0,14,0.00,,,0.00,897.000000,,2013-05-13 20:44:00,
2013-05-13 14:53:00,72.0,20.0,-100.00,South,174,7.0,15.0,14,0.00,,,0.00,897.000000,,2013-05-13 20:53:00,
2013-05-13 15:02:00,72.0,20.0,-100.00,South,174,7.0,15.0,14,0.00,,,0.00,897.000000,,2013-05-13 21:02:00,
2013-05-13 15:12:00,70.0,19.0,-100.00,WNW,294,7.0,13.0,14,0.00,,,0.00,786.000000,,2013-05-13 21:12:00,
2013-05-13 15:43:00,70.0,19.0,-100.00,WNW,294,7.0,13.0,14,0.00,,,0.00,786.000000,,2013-05-13 21:43:00,
2013-05-13 15:53:00,70.0,19.0,-100.00,WNW,294,7.0,13.0,14,0.00,,,0.00,786.000000,,2013-05-13 21:53:00,
2013-05-13 16:02:00,70.0,19.0,-100.00,WNW,294,7.0,13.0,14,0.00,,,0.00,786.000000,,2013-05-13 22:02:00,
2013-05-13 16:12:00,76.0,23.0,-100.00,SW,223,4.0,12.0,14,0.00,,,0.00,585.000000,,2013-05-13 22:12:00,
2013-05-13 16:43:00,76.0,23.0,-100.00,SW,223,4.0,12.0,14,0.00,,,0.00,585.000000,,2013-05-13 22:43:00,
2013-05-13 16:52:00,76.0,23.0,-100.00,SW,223,4.0,12.0,14,0.00,,,0.00,585.000000,,2013-05-13 22:52:00,
2013-05-13 17:01:00,76.0,23.0,-100.00,SW,223,4.0,12.0,14,0.00,,,0.00,585.000000,,2013-05-13 23:01:00,
2013-05-13 17:12:00,70.0,20.0,-100.00,WNW,284,3.0,11.0,15,0.00,,,0.00,310.000000,,2013-05-13 23:12:00,
2013-05-13 17:42:00,70.0,20.0,-100.00,WNW,284,3.0,11.0,15,0.00,,,0.00,310.000000,,2013-05-13 23:42:00,
2013-05-13 17:54:00,70.0,20.0,-100.00,WNW,284,3.0,11.0,15,0.00,,,0.00,310.000000,,2013-05-13 23:54:00,
2013-05-13 18:02:00,70.0,20.0,-100.00,WNW,284,3.0,11.0,15,0.00,,,0.00,310.000000,,2013-05-14 00:02:00,
2013-05-13 19:32:00,61.0,29.0,-100.00,NNW,332,14.0,22.0,30,-99.99,,,0.00,84.000000,,2013-05-14 01:32:00,
2013-05-13 19:43:00,61.0,29.0,-100.00,NNW,332,14.0,22.0,30,-99.99,,,0.00,84.000000,,2013-05-14 01:43:00,
2013-05-13 19:53:00,61.0,29.0,-100.00,NNW,332,14.0,22.0,30,-99.99,,,0.00,84.000000,,2013-05-14 01:53:00,
2013-05-13 20:02:00,61.0,29.0,-100.00,NNW,332,14.0,22.0,30,-99.99,,,0.00,84.000000,,2013-05-14 02:02:00,
2013-05-13 20:11:00,61.0,29.0,-100.00,NNW,332,14.0,22.0,30,-99.99,,,0.00,84.000000,,2013-05-14 02:11:00,
2013-05-13 20:32:00,59.0,29.0,-100.00,North,6,5.0,20.0,32,0.00,,,-99.99,16.000000,,2013-05-14 02:32:00,
2013-05-13 20:42:00,59.0,29.0,-100.00,North,6,5.0,20.0,32,0.00,,,-99.99,16.000000,,2013-05-14 02:42:00,
2013-05-13 20:52:00,59.0,29.0,-100.00,North,6,5.0,20.0,32,0.00,,,-99.99,16.000000,,2013-05-14 02:52:00,
2013-05-13 21:01:00,59.0,29.0,-100.00,North,6,5.0,20.0,32,0.00,,,-99.99,16.000000,,2013-05-14 03:01:00,
2013-05-13 21:11:00,59.0,29.0,-100.00,North,6,5.0,20.0,32,0.00,,,-99.99,16.000000,,2013-05-14 03:11:00,
2013-05-13 21:12:00,58.0,30.0,-100.00,SE,131,7.0,12.0,34,0.00,,,0.00,0.000000,,2013-05-14 03:12:00,
2013-05-13 21:33:00,58.0,30.0,-100.00,SE,131,7.0,12.0,34,0.00,,,0.00,0.000000,,2013-05-14 03:33:00,
2013-05-13 21:42:00,58.0,30.0,-100.00,SE,131,7.0,12.0,34,0.00,,,0.00,0.000000,,2013-05-14 03:42:00,
2013-05-13 21:53:00,58.0,30.0,-100.00,SE,131,7.0,12.0,34,0.00,,,0.00,0.000000,,2013-05-14 03:53:00,
2013-05-13 22:02:00,58.0,30.0,-100.00,SE,131,7.0,12.0,34,0.00,,,0.00,0.000000,,2013-05-14 04:02:00,
2013-05-13 22:12:00,56.0,31.0,-100.00,East,94,7.0,17.0,38,0.00,,,0.00,0.000000,,2013-05-14 04:12:00,
2013-05-13 22:32:00,56.0,31.0,-100.00,East,94,7.0,17.0,38,0.00,,,0.00,0.000000,,2013-05-14 04:32:00,
2013-05-13 22:43:00,56.0,31.0,-100.00,East,94,7.0,17.0,38,0.00,,,0.00,0.000000,,2013-05-14 04:43:00,
2013-05-13 22:53:00,56.0,31.0,-100.00,East,94,7.0,17.0,38,0.00,,,0.00,0.000000,,2013-05-14 04:53:00,
2013-05-13 23:01:00,56.0,31.0,-100.00,East,94,7.0,17.0,38,0.00,,,0.00,0.000000,,2013-05-14 05:01:00,
2013-05-13 23:12:00,56.0,31.0,-100.00,NNE,21,5.0,7.0,38,0.00,,,0.00,0.000000,,2013-05-14 05:12:00,
2013-05-13 23:32:00,56.0,31.0,-100.00,NNE,21,5.0,7.0,38,0.00,,,0.00,0.000000,,2013-05-14 05:32:00,
2013-05-13 23:42:00,56.0,31.0,-100.00,NNE,21,5.0,7.0,38,0.00,,,0.00,0.000000,,2013-05-14 05:42:00,
2013-05-13 23:52:00,56.0,31.0,-100.00,NNE,21,5.0,7.0,38,0.00,,,0.00,0.000000,,2013-05-14 05:52:00,